TDO-3 (48619 NORAD) Tracking and Keplerian Element Data

This shows tracking and keplerian element data for the satellite.

Feedback or suggestion? Click here.




ElementValue
Catalog48619
NameTDO-3
Epoch Orbit781
Epoch Day210.99516506
Epoch Year2021
RAAN85.418
Inclination26.1859
Eccentricity0.2348585
Argument of Perigee190.4013
Mean Anonmoly163.8135
Mean Motion10.94029612
Decay Rate0.00239908
L11 48619U 21042B 21210.99516506 .00239908 -27701-5 74605-3 0 9993
L22 48619 26.1859 85.4180 2348585 190.4013 163.8135 10.94029612 7817

Live tracking and technical data element details for TDO-3 (NORAD 48619). TDO-3 can be tracked NOW for your location showing map with azimuth and elevation plus other details from your city location.

Track the satellite on the map from your city or location and see movement details for azimuth, elevation, latitude, longitude, range, height, and movement on the map or in text.







IsCatalogInMostPopularTable: catalog: 48619, numindb: 18
Update: records affected: 1



GetName: 48619 TDO-3

Hit Count: updated at: Sat, 31 Jul 2021 15:34:54 GMT